Sturgis, MI

10:46 AM EST on December 13, 2017 (GMT -0500)
Kirsch Municipal

Weather History for KIRS - December, 2011

Change the Weather History Date:

Monday, December 19, 2011

  Actual Average (KHAI) Record (KHAI)
Temperature  
Mean Temperature 42 °F -  
Max Temperature 50 °F 34 °F 55 °F (1957)
Min Temperature 35 °F 19 °F -9 °F (1983)
Degree Days  
Heating Degree Days 22    
Moisture  
Dew Point 36 °F    
Average Humidity 76    
Maximum Humidity 87    
Minimum Humidity 66    
Precipitation  
Precipitation 0.00 in - - ()
Sea Level Pressure  
Sea Level Pressure 29.93 in    
Wind  
Wind Speed 12 mph (WSW)    
Max Wind Speed 17 mph    
Max Gust Speed 23 mph    
Visibility 10 miles    
Events      
Averages and records for this station are not official NWS values.
T = Trace of Precipitation, MM = Missing Value Source: NWS Daily Summary

Daily Weather History Graph

Daily Weather History Graph

Search for Another Location

Airport or City:

Trip Planner

Search our weather history database for the weather conditions in past years. The results will help you decide how hot, cold, wet, or windy it might be!

Date:

Astronomy

Dec. 19, 2011 Rise Set
Actual Time 8:04 AM EST 5:13 PM EST
Civil Twilight 7:32 AM EST 5:44 PM EST
Nautical Twilight 6:57 AM EST 6:19 PM EST
Astronomical Twilight 6:23 AM EST 6:53 PM EST
Moon 2:10 AM EST (12/19) 1:14 PM EST (12/19)
Length of Visible Light 10h 11m
Length of Day
9h 08m
Waning Crescent, 31% of the Moon is Illuminated
Dec 19
Waning Crescent
Dec 24
New
Jan 1
First Quarter
Jan 9
Full
Jan 16
Last Quarter

Hourly Weather History & Observations

Time (EST) Temp. Windchill Dew Point Humidity Pressure Visibility Wind Dir Wind Speed Gust Speed Precip Events Conditions
12:14 AM 35.6 °F 27.5 °F 32.0 °F 87% 29.95 in 10.0 mi SSW 11.5 mph - N/A   Clear
12:35 AM 35.6 °F 28.0 °F 32.0 °F 87% 29.95 in 10.0 mi SW 10.4 mph - N/A   Clear
12:55 AM 37.4 °F 29.8 °F 33.8 °F 87% 29.94 in 10.0 mi SW 11.5 mph - N/A   Clear
1:14 AM 37.4 °F 30.3 °F 33.8 °F 87% 29.94 in 10.0 mi SW 10.4 mph - N/A   Scattered Clouds
1:35 AM 37.4 °F 29.3 °F 33.8 °F 87% 29.92 in 10.0 mi SW 12.7 mph 17.3 mph N/A   Mostly Cloudy
1:55 AM 37.4 °F 30.3 °F 33.8 °F 87% 29.92 in 10.0 mi SW 10.4 mph - N/A   Overcast
2:14 AM 37.4 °F 29.3 °F 33.8 °F 87% 29.92 in 10.0 mi SW 12.7 mph 17.3 mph N/A   Overcast
2:35 AM 39.2 °F 31.6 °F 33.8 °F 81% 29.90 in 10.0 mi SW 12.7 mph 17.3 mph N/A   Overcast
2:54 AM 39.2 °F 31.6 °F 33.8 °F 81% 29.90 in 10.0 mi SW 12.7 mph - N/A   Overcast
3:15 AM 39.2 °F 30.8 °F 33.8 °F 81% 29.90 in 10.0 mi SW 15.0 mph 18.4 mph N/A   Overcast
3:35 AM 41.0 °F 33.1 °F 33.8 °F 76% 29.90 in 10.0 mi SW 15.0 mph - N/A   Overcast
3:54 AM 41.0 °F 33.5 °F 33.8 °F 76% 29.89 in 10.0 mi SW 13.8 mph 23.0 mph N/A   Overcast
4:15 AM 41.0 °F 33.1 °F 33.8 °F 76% 29.89 in 10.0 mi SW 15.0 mph - N/A   Overcast
4:35 AM 42.8 °F 35.1 °F 33.8 °F 70% 29.89 in 10.0 mi SW 16.1 mph - N/A   Overcast
4:54 AM 42.8 °F 35.4 °F 33.8 °F 70% 29.89 in 10.0 mi SW 15.0 mph - N/A   Overcast
5:15 AM 42.8 °F 36.2 °F 33.8 °F 70% 29.89 in 10.0 mi SW 12.7 mph 19.6 mph N/A   Overcast
5:34 AM 42.8 °F 35.8 °F 33.8 °F 70% 29.89 in 10.0 mi SW 13.8 mph - N/A   Overcast
5:54 AM 42.8 °F 35.8 °F 33.8 °F 70% 29.89 in 10.0 mi WSW 13.8 mph - N/A   Overcast
6:15 AM 42.8 °F 35.8 °F 33.8 °F 70% 29.89 in 10.0 mi SW 13.8 mph - N/A   Overcast
6:34 AM 42.8 °F 36.2 °F 35.6 °F 76% 29.89 in 10.0 mi WSW 12.7 mph - N/A   Overcast
6:55 AM 42.8 °F 35.8 °F 35.6 °F 76% 29.89 in 10.0 mi SW 13.8 mph - N/A   Overcast
7:14 AM 42.8 °F 37.0 °F 35.6 °F 76% 29.89 in 10.0 mi SW 10.4 mph 18.4 mph N/A   Overcast
7:55 AM 42.8 °F 36.6 °F 35.6 °F 76% 29.90 in 10.0 mi SW 11.5 mph - N/A   Overcast
8:14 AM 42.8 °F 36.6 °F 35.6 °F 76% 29.90 in 10.0 mi WSW 11.5 mph - N/A   Overcast
8:35 AM 42.8 °F 37.0 °F 35.6 °F 76% 29.91 in 10.0 mi WSW 10.4 mph - N/A   Overcast
8:55 AM 42.8 °F 37.5 °F 35.6 °F 76% 29.91 in 10.0 mi SW 9.2 mph - N/A   Overcast
9:14 AM 42.8 °F 37.0 °F 37.4 °F 81% 29.92 in 10.0 mi SW 10.4 mph - N/A   Overcast
9:35 AM 42.8 °F 36.6 °F 37.4 °F 81% 29.92 in 10.0 mi SW 11.5 mph - N/A   Scattered Clouds
9:55 AM 44.6 °F 38.8 °F 37.4 °F 76% 29.92 in 10.0 mi SW 11.5 mph - N/A   Scattered Clouds
10:14 AM 46.4 °F 40.4 °F 37.4 °F 71% 29.92 in 10.0 mi WSW 13.8 mph - N/A   Mostly Cloudy
10:35 AM 46.4 °F 40.1 °F 37.4 °F 71% 29.93 in 10.0 mi WSW 15.0 mph 21.9 mph N/A   Overcast
10:54 AM 46.4 °F 40.7 °F 39.2 °F 76% 29.93 in 10.0 mi WSW 12.7 mph 21.9 mph N/A   Overcast
11:15 AM 48.2 °F - 37.4 °F 66% 29.93 in 10.0 mi WSW 16.1 mph - N/A   Overcast
11:35 AM 48.2 °F - 39.2 °F 71% 29.93 in 10.0 mi WSW 13.8 mph 18.4 mph N/A   Overcast
11:54 AM 48.2 °F - 39.2 °F 71% 29.93 in 10.0 mi West 13.8 mph 21.9 mph N/A   Overcast
12:15 PM 48.2 °F - 39.2 °F 71% 29.93 in 10.0 mi WSW 13.8 mph 23.0 mph N/A   Overcast
12:35 PM 48.2 °F - 39.2 °F 71% 29.92 in 10.0 mi WSW 12.7 mph 19.6 mph N/A   Mostly Cloudy
12:54 PM 48.2 °F - 39.2 °F 71% 29.92 in 10.0 mi West 11.5 mph 19.6 mph N/A   Mostly Cloudy
1:15 PM 48.2 °F - 37.4 °F 66% 29.92 in 10.0 mi West 11.5 mph 17.3 mph N/A   Overcast
1:35 PM 48.2 °F - 39.2 °F 71% 29.92 in 10.0 mi West 17.3 mph 21.9 mph N/A   Overcast
1:55 PM 48.2 °F - 39.2 °F 71% 29.92 in 10.0 mi West 11.5 mph 17.3 mph N/A   Overcast
2:15 PM 50.0 °F - 39.2 °F 66% 29.91 in 10.0 mi WSW 13.8 mph 19.6 mph N/A   Overcast
2:34 PM 48.2 °F - 39.2 °F 71% 29.92 in 10.0 mi West 8.1 mph - N/A   Overcast
2:55 PM 48.2 °F - 39.2 °F 71% 29.92 in 10.0 mi West 6.9 mph - N/A   Overcast
3:14 PM 48.2 °F - 39.2 °F 71% 29.93 in 10.0 mi West 11.5 mph 16.1 mph N/A   Overcast
3:35 PM 48.2 °F - 39.2 °F 71% 29.94 in 10.0 mi West 6.9 mph - N/A   Overcast
3:55 PM 48.2 °F - 39.2 °F 71% 29.96 in 10.0 mi WNW 9.2 mph - N/A   Overcast
4:14 PM 46.4 °F 41.9 °F 37.4 °F 71% 29.96 in 10.0 mi WNW 9.2 mph - N/A   Overcast
4:35 PM 46.4 °F 42.4 °F 37.4 °F 71% 29.98 in 10.0 mi NW 8.1 mph - N/A   Overcast
5:14 PM 44.6 °F 39.2 °F 37.4 °F 76% 30.00 in 10.0 mi NW 10.4 mph - N/A   Overcast
5:35 PM 42.8 °F - 37.4 °F 81% 30.01 in 10.0 mi Calm Calm - N/A   Mostly Cloudy
5:55 PM 42.8 °F 38.0 °F 37.4 °F 81% 30.02 in 10.0 mi NW 8.1 mph - N/A   Mostly Cloudy
6:15 PM 41.0 °F 39.0 °F 35.6 °F 81% 30.03 in 7.0 mi NNW 3.5 mph - N/A   Mostly Cloudy
6:34 PM 41.0 °F - 35.6 °F 81% 30.04 in 10.0 mi Calm Calm - N/A   Scattered Clouds
6:55 PM 39.2 °F - 35.6 °F 87% 30.05 in 10.0 mi Calm Calm - N/A   Clear
7:15 PM 39.2 °F - 35.6 °F 87% 30.05 in 10.0 mi Calm Calm - N/A   Clear
7:34 PM 39.2 °F 33.6 °F 35.6 °F 87% 30.06 in 10.0 mi NW 8.1 mph - N/A   Clear
7:55 PM 39.2 °F 33.6 °F 35.6 °F 87% 30.07 in 10.0 mi NW 8.1 mph - N/A   Clear
8:14 PM 39.2 °F 33.6 °F 35.6 °F 87% 30.08 in 10.0 mi NNW 8.1 mph - N/A   Scattered Clouds
8:35 PM 39.2 °F 32.5 °F 35.6 °F 87% 30.08 in 10.0 mi North 10.4 mph - N/A   Mostly Cloudy
8:55 PM 39.2 °F 33.6 °F 33.8 °F 81% 30.09 in 10.0 mi North 8.1 mph - N/A   Overcast
9:14 PM 39.2 °F 32.5 °F 33.8 °F 81% 30.10 in 10.0 mi North 10.4 mph - N/A   Overcast
9:35 PM 39.2 °F 31.2 °F 33.8 °F 81% 30.12 in 10.0 mi North 13.8 mph 20.7 mph N/A   Overcast
9:55 PM 37.4 °F 29.8 °F 33.8 °F 87% 30.12 in 10.0 mi North 11.5 mph - N/A   Overcast
10:14 PM 35.6 °F 27.1 °F 30.2 °F 81% 30.13 in 10.0 mi NNE 12.7 mph 17.3 mph N/A   Overcast
10:35 PM 35.6 °F 28.0 °F 28.4 °F 75% 30.13 in 10.0 mi North 10.4 mph - N/A   Overcast
10:55 PM 35.6 °F 28.6 °F 30.2 °F 81% 30.14 in 10.0 mi NNE 9.2 mph - N/A   Overcast
11:14 PM 35.6 °F 29.9 °F 28.4 °F 75% 30.14 in 10.0 mi NNE 6.9 mph - N/A   Overcast
11:35 PM 35.6 °F 27.5 °F 28.4 °F 75% 30.14 in 10.0 mi NNE 11.5 mph - N/A   Overcast
11:54 PM 35.6 °F 31.7 °F 28.4 °F 75% 30.14 in 10.0 mi NNE 4.6 mph - N/A   Overcast